Location: Consuma
(43.7833°N, 11.5833°E)
Time: 15:10:50
(UTC+00:00)

DMSP B5D1-3 - Pass Details

Date: 17 February 2020
Orbit: 768 x 780 km, 98.5° (Epoch: 07 April)

Event Time Altitude Azimuth Distance (km) Brightness Sun altitude
Rises 05:10:15 0° 171° (S) 3,223 7.9 -11.5°
Reaches altitude 10° 05:12:33 10° 173° (S) 2,301 7.1 -11.1°
Maximum altitude 05:17:37 71° 257° (WSW) 814 4.5 -10.2°
Drops below altitude 10° 05:22:43 10° 342° (NNW) 2,320 6.7 -9.3°
Sets 05:25:03 0° 345° (NNW) 3,253 7.5 -8.9°
